Lid_Strength_Index
4 4 4 4 4 4 4 4 4 4 5 5 4 4 4 4 5 9 11 10 11 14 13 11 10 13 13 14 16 14 15 14 14 16 16 16 16 14 15 14 14 16 15 15 15 18 18 9 10 13 11 9 7 7
5 5 5 5 4 4 4 4 4 4 4 4 3 3 4 4 4 7 12 9 9 12 13 11 10 9 10 11 13 14 15 14 13 14 15 15 16 16 16 18 13 17 14 16 15 15 9 10 10 9 9 7 8 8
4 4 5 4 4 4 4 4 4 4 3 3 3 3 3 3 4 7 10 11 11 14 14 13 13 11 10 10 9 13 13 12 12 12 13 14 16 15 17 16 14 12 12 15 14 11 11 9 8 7 6 7 7 7
4 4 5 5 5 4 4 4 4 4 3 3 3 3 3 3 3 6 11 10 11 13 14 15 10 11 8 9 9 10 10 10 11 11 14 15 15 13 16 14 14 12 12 13 12 10 10 9 8 7 7 6 6 6
5 5 5 5 5 4 4 4 4 4 3 3 3 3 3 3 4 7 9 9 9 12 16 14 12 10 10 9 9 9 10 11 12 13 14 15 14 14 14 13 14 12 12 14 14 10 11 10 8 7 7 7 6 6
5 5 5 5 4 4 3 4 3 3 3 3 3 3 3 4 5 8 11 8 8 9 13 15 12 11 10 10 9 10 10 11 11 12 13 12 11 12 15 15 11 10 10 10 10 8 8 7 7 6 7 6 6 5
5 5 5 5 4 4 4 3 3 3 3 3 2 3 4 5 7 10 12 7 6 6 12 14 15 11 9 10 10 10 9 10 9 9 12 12 11 8 10 14 11 10 9 8 6 7 8 7 7 5 6 6 6 6
5 5 5 5 4 4 3 3 3 3 3 3 3 4 4 5 6 9 7 5 6 10 10 15 15 13 9 10 11 8 9 8 8 8 9 9 9 9 12 12 10 8 6 6 6 6 7 7 7 7 6 7 8 7
5 4 4 5 4 4 3 3 3 2 3 3 3 4 6 7 10 9 4 5 7 10 13 11 15 16 8 10 8 9 9 10 7 9 9 9 10 13 11 10 8 7 7 7 7 6 6 7 7 6 6 6 6 7
3 4 4 4 4 3 2 2 2 1 2 3 5 7 9 7 3 4 8 10 10 10 11 12 13 14 12 12 12 12 11 11 12 11 10 10 11 8 7 7 6 6 6 6 8 8 7 7 7 6 6 5 5 5
2 2 2 2 2 2 1 1 0 1 2 6 7 8 5 2 6 8 11 11 11 12 11 12 12 13 10 13 14 11 12 12 13 13 12 13 12 8 6 6 6 6 6 5 5 5 6 6 6 5 5 4 4 4
2 2 2 2 1 1 1 -0 0 3 4 4 4 4 4 7 9 11 12 11 12 13 11 12 11 11 11 10 12 11 13 12 14 10 11 14 9 7 7 7 6 5 5 5 5 5 4 4 4 4 5 5 4 4
2 1 2 2 1 1 -0 -0 1 2 2 3 5 7 8 9 12 13 14 13 13 10 10 10 10 10 10 9 10 11 13 13 10 12 13 11 8 8 8 7 6 6 5 5 4 4 4 4 4 5 6 5 4 5
1 1 1 1 1 0 -1 0 1 2 4 7 9 12 10 12 11 12 11 11 9 8 8 8 8 9 8 10 11 11 11 11 13 14 13 10 9 9 8 7 6 6 5 5 4 4 4 5 5 5 5 4 4 5
0 1 1 1 0 0 -0 0 1 2 5 8 8 12 11 9 9 9 9 9 8 6 6 7 8 8 9 10 9 9 11 14 12 13 11 10 9 9 8 7 6 6 5 5 4 4 4 4 6 6 5 4 4 4
1 1 2 0 0 -0 0 1 2 3 5 6 7 9 8 9 9 8 8 7 5 6 5 6 9 10 11 11 12 12 12 14 12 11 10 10 10 9 7 6 6 5 4 4 5 4 4 5 6 6 5 4 5 5
0 2 0 0 -0 1 1 3 4 6 7 8 9 7 8 9 9 8 7 7 5 6 9 9 11 11 9 12 13 10 12 10 10 10 9 10 9 8 7 6 5 5 5 5 5 6 6 5 6 7 6 5 4 5
1 1 -0 -0 1 2 3 3 5 7 9 8 10 9 8 8 8 7 7 6 6 7 7 9 8 11 12 12 12 10 9 9 9 9 9 8 7 6 5 5 4 4 4 5 5 5 5 6 6 6 6 5 4 5
-0 -0 -0 0 1 3 5 5 5 9 8 8 9 9 7 6 6 6 6 5 5 4 7 9 10 12 12 10 10 10 9 10 10 10 8 6 6 5 4 4 4 5 5 5 5 4 4 4 5 5 5 7 8 6
-0 0 0 -0 0 4 7 8 6 8 9 8 8 9 7 6 6 6 7 6 7 7 8 10 11 10 10 10 9 9 9 9 9 8 7 6 5 5 5 5 5 5 5 5 4 6 4 5 4 5 5 6 7 7
0 0 -0 2 2 2 4 7 8 7 8 8 7 6 7 7 7 8 8 7 8 9 10 9 9 9 8 8 8 8 7 7 8 7 6 7 4 5 5 4 5 5 6 4 5 6 6 6 6 5 5 5 6 6
2 1 3 2 5 5 5 4 6 5 7 6 7 7 8 9 9 8 8 9 9 9 9 8 8 6 6 6 6 5 5 5 5 5 7 6 5 5 5 5 6 6 6 6 6 6 6 5 5 4 4 4 6 5
2 3 4 4 7 7 7 3 7 6 9 9 9 10 10 10 9 7 10 9 9 6 5 6 6 5 6 6 6 5 5 5 5 5 5 4 4 4 4 5 5 4 5 4 4 4 4 7 4 4 4 3 4 4
2 4 6 6 7 9 6 8 7 8 9 11 13 12 12 11 9 10 11 10 9 7 7 6 5 6 6 6 6 6 5 5 5 4 3 4 4 4 4 4 4 4 4 3 3 3 4 3 5 4 3 4 4 4
11 10 10 13 8 10 11 10 10 12 12 12 12 12 10 9 11 13 13 10 8 7 6 5 5 5 6 6 5 5 4 5 5 4 4 4 5 5 5 4 4 5 4 4 4 4 4 4 5 5 5 4 5 6
15 10 12 10 11 11 11 12 12 11 11 11 11 10 10 11 13 13 11 8 8 7 5 5 5 5 5 4 5 5 4 3 4 5 4 3 3 5 7 7 6 5 4 4 3 4 5 5 5 5 5 5 8 6
13 12 9 7 8 9 11 10 8 10 11 11 10 11 11 13 13 11 8 7 7 4 3 3 3 4 4 4 4 3 3 3 4 3 2 2 3 4 5 5 6 5 3 3 3 4 5 5 5 5 5 4 4 4
9 9 12 10 10 10 12 12 11 12 11 9 10 12 13 13 11 7 5 3 3 3 3 3 4 6 7 8 8 7 7 5 4 4 5 5 4 2 4 4 5 9 5 6 4 4 5 5 6 6 7 7 7 5
12 10 9 11 11 11 11 12 12 10 8 9 11 11 10 8 5 4 3 3 2 3 5 7 8 7 7 7 6 7 8 7 6 7 8 9 8 6 5 4 3 3 4 7 10 7 5 5 6 7 7 8 8 8
12 9 11 11 12 12 10 9 8 7 6 6 6 6 6 5 4 3 3 4 5 5 5 5 7 7 8 9 9 8 8 8 8 8 9 9 8 7 6 6 6 6 5 5 6 7 9 8 8 8 8 9 9 9
9 10 10 10 10 8 7 6 7 7 6 6 6 7 6 5 3 2 3 4 6 7 7 8 8 8 9 9 9 9 10 9 8 8 8 8 8 8 7 6 6 6 6 7 7 8 8 9 9 9 9 10 10 10
9 9 8 9 8 7 6 7 7 7 7 7 7 7 7 7 7 4 3 5 6 6 8 8 8 9 8 8 8 9 10 9 9 9 8 9 9 8 8 7 7 7 8 8 9 9 9 10 10 10 11 11 11 11
8 8 8 7 8 8 6 7 7 7 7 7 6 6 7 7 7 5 3 2 4 5 5 6 6 7 7 7 8 9 10 10 12 13 12 12 12 11 9 8 7 8 8 9 10 10 10 10 10 11 11 12 12 13